Altus AFB, OK

10:00 AM CDT on October 20, 2019 (GMT -0500)
Altus Air Force Base

Weather History for KLTS - August, 2019

Change the Weather History Date:

Sunday, August 11, 2019

  Actual Average Record
Temperature  
Mean Temperature 88 °F -  
Max Temperature 105 °F 93 °F 105 °F (2019)
Min Temperature 72 °F 70 °F 64 °F (1996)
Cooling Degree Days 24    
Growing Degree Days 38 (Base 50)    
Moisture  
Dew Point 62 °F    
Average Humidity 44    
Maximum Humidity 78    
Minimum Humidity 20    
Precipitation  
Precipitation 0.00 in - - ()
Sea Level Pressure  
Sea Level Pressure 29.85 in    
Wind  
Wind Speed 10 mph (SSE)    
Max Wind Speed 16 mph    
Max Gust Speed 25 mph    
Visibility 10 miles    
Events      
Averages and records for this station are not official NWS values.
T = Trace of Precipitation, MM = Missing Value Source: NWS Daily Summary

Daily Weather History Graph

Daily Weather History Graph

Search for Another Location

Airport or City:

Astronomy

Aug. 11, 2019 Rise Set
Actual Time 6:54 AM CDT 8:29 PM CDT
Civil Twilight 6:27 AM CDT 8:56 PM CDT
Nautical Twilight 5:55 AM CDT 9:28 PM CDT
Astronomical Twilight 5:20 AM CDT 10:02 PM CDT
Moon 6:04 PM CDT (8/11) 3:21 AM CDT (8/11)
Length of Visible Light 14h 28m
Length of Day
13h 34m
Waxing Gibbous, 87% of the Moon is Illuminated
Aug 11
Waxing Gibbous
Aug 15
Full
Aug 23
Last Quarter
Aug 30
New
Sep 5
First Quarter

Hourly Weather History & Observations

Time (CDT) Temp. Heat Index Dew Point Humidity Pressure Visibility Wind Dir Wind Speed Gust Speed Precip Events Conditions
12:56 AM 82.0 °F 82.8 °F 61.5 °F 50% 29.86 in 10.0 mi SSE 9.2 mph - N/A   Clear
1:56 AM 79.3 °F - 61.7 °F 55% 29.85 in 10.0 mi SE 6.9 mph - N/A   Clear
2:56 AM 76.1 °F - 62.1 °F 62% 29.86 in 10.0 mi ESE 6.9 mph - N/A   Clear
3:56 AM 74.3 °F - 62.6 °F 67% 29.85 in 10.0 mi SSE 5.8 mph - N/A   Clear
4:56 AM 73.0 °F - 63.0 °F 71% 29.86 in 10.0 mi ESE 6.9 mph - N/A   Clear
5:56 AM 74.1 °F - 63.7 °F 70% 29.87 in 10.0 mi SE 6.9 mph - N/A   Clear
6:56 AM 72.0 °F - 64.8 °F 78% 29.89 in 10.0 mi SE 6.9 mph - N/A   Clear
7:56 AM 76.3 °F - 64.4 °F 67% 29.91 in 10.0 mi SSE 8.1 mph - N/A   Clear
8:56 AM 82.0 °F 83.9 °F 65.7 °F 57% 29.92 in 10.0 mi South 10.4 mph - N/A   Clear
9:56 AM 89.1 °F 90.6 °F 64.2 °F 44% 29.91 in 10.0 mi South 13.8 mph - N/A   Clear
10:56 AM 93.7 °F 94.5 °F 62.6 °F 35% 29.91 in 10.0 mi SSW 12.7 mph - N/A   Clear
11:56 AM 97.9 °F 99.8 °F 63.0 °F 32% 29.89 in 10.0 mi SSW 13.8 mph - N/A   Clear
12:56 PM 101.5 °F 103.6 °F 62.2 °F 28% 29.87 in 10.0 mi SW 12.7 mph - N/A   Clear
1:56 PM 104.0 °F 104.6 °F 59.9 °F 23% 29.85 in 10.0 mi SSW 9.2 mph - N/A   Partly Cloudy
2:00 PM 104.0 °F 105.3 °F 60.8 °F 24% 29.85 in 10.0 mi SW 12.7 mph - N/A   Partly Cloudy
2:56 PM 105.1 °F 104.4 °F 55.8 °F 20% 29.83 in 10.0 mi South 13.8 mph 19.6 mph N/A   Clear
3:56 PM 104.7 °F 105.1 °F 58.1 °F 22% 29.83 in 10.0 mi SSE 16.1 mph 25.3 mph N/A   Clear
4:56 PM 104.7 °F 105.8 °F 59.4 °F 23% 29.81 in 10.0 mi SSE 16.1 mph - N/A   Clear
5:56 PM 102.6 °F 103.0 °F 59.9 °F 24% 29.80 in 10.0 mi South 13.8 mph - N/A   Clear
6:56 PM 99.7 °F 101.2 °F 62.6 °F 29% 29.79 in 10.0 mi SSE 16.1 mph - N/A   Clear
7:56 PM 93.6 °F 95.0 °F 64.0 °F 37% 29.79 in 10.0 mi SSE 10.4 mph - N/A   Clear
8:56 PM 88.2 °F 88.4 °F 62.1 °F 41% 29.81 in 10.0 mi SSE 11.5 mph - N/A   Clear
9:56 PM 87.6 °F 87.2 °F 59.5 °F 39% 29.83 in 10.0 mi SSE 10.4 mph - N/A   Clear
10:56 PM 83.8 °F 84.5 °F 62.1 °F 48% 29.85 in 10.0 mi SSE 10.4 mph - N/A   Clear
11:56 PM 82.0 °F 83.3 °F 63.1 °F 53% 29.85 in 10.0 mi SE 8.1 mph - N/A   Clear